This is the latest recevied weather packets stored in our database for station/object 4S6DRJ-13. If no packets are shown the sender has not sent any weather packets the latest 10 day(s).
| Time | Temp. | Humidity | Pressure | Rain* | Wind** | Luminosity | Snow |
|---|---|---|---|---|---|---|---|
| 1788095348 | 28.33° C | 79% | 1008.8 hPa | 0 mm | 1.34 m/s, 233° | 0 W/m² | - |
| 1788095274 | 28.33° C | 79% | 1008.8 hPa | 0 mm | 1.79 m/s, 294° | 0 W/m² | - |
| 1788095213 | 28.33° C | 79% | 1008.8 hPa | 0 mm | 2.24 m/s, 215° | 0 W/m² | - |
| 1788095152 | 28.33° C | 80% | 1008.8 hPa | 0 mm | 0.89 m/s, 195° | 0 W/m² | - |
| 1788095091 | 28.33° C | 80% | 1009.1 hPa | 0 mm | 0.45 m/s, 241° | 0 W/m² | - |
| 1788095030 | 28.33° C | 80% | 1008.8 hPa | 0 mm | 0.45 m/s, 247° | 0 W/m² | - |
| 1788094908 | 28.33° C | 80% | 1008.9 hPa | 0 mm | 1.79 m/s, 256° | 0 W/m² | - |
| 1788094847 | 28.33° C | 80% | 1008.9 hPa | 0 mm | 1.34 m/s, 259° | 0 W/m² | - |
| 1788094787 | 28.33° C | 80% | 1008.7 hPa | 0 mm | 0.89 m/s, 250° | 0 W/m² | - |
| 1788094725 | 28.33° C | 79% | 1008.7 hPa | 0 mm | 1.79 m/s, 213° | 0 W/m² | - |
| 1788094672 | 28.33° C | 79% | 1008.8 hPa | 0 mm | 0.89 m/s, 238° | 1 W/m² | - |
| 1788094603 | 28.33° C | 79% | 1008.7 hPa | 0 mm | 0.45 m/s, 220° | 1 W/m² | - |
| 1788094542 | 28.33° C | 79% | 1008.6 hPa | 0 mm | 0.89 m/s, 269° | 1 W/m² | - |
| 1788094481 | 28.33° C | 79% | 1008.7 hPa | 0 mm | 0.89 m/s, 308° | 1 W/m² | - |
| 1788094420 | 28.33° C | 79% | 1008.5 hPa | 0 mm | 0.89 m/s, 273° | 1 W/m² | - |
| 1788094359 | 28.33° C | 79% | 1008.7 hPa | 0 mm | 0.89 m/s, 217° | 2 W/m² | - |
| 1788094298 | 28.33° C | 79% | 1008.5 hPa | 0 mm | 1.34 m/s, 223° | 2 W/m² | - |
| 1788094237 | 28.33° C | 79% | 1008.7 hPa | 0 mm | 0.89 m/s, 250° | 2 W/m² | - |
| 1788094176 | 28.33° C | 79% | 1008.5 hPa | 0 mm | 0.45 m/s, 201° | 3 W/m² | - |
| 1788094116 | 28.33° C | 79% | 1008.5 hPa | 0 mm | 0.89 m/s, 228° | 3 W/m² | - |
| 1788094054 | 28.33° C | 79% | 1008.6 hPa | 0 mm | 0.89 m/s, 200° | 3 W/m² | - |
| 1788093993 | 28.33° C | 79% | 1008.4 hPa | 0 mm | 1.79 m/s, 245° | 4 W/m² | - |
| 1788093932 | 28.33° C | 79% | 1008.6 hPa | 0 mm | 1.34 m/s, 255° | 4 W/m² | - |
| 1788093871 | 28.33° C | 79% | 1008.5 hPa | 0 mm | 0.89 m/s, 228° | 4 W/m² | - |
| 1788093810 | 28.33° C | 79% | 1008.5 hPa | 0 mm | 0.89 m/s, 232° | 5 W/m² | - |
* Rain latest hour (hover to see other rain measurements)
** Current wind speed in m/s (hover to see current wind gust speed)